Year,Month,Day,Hour,Minute,Value (Times are PST for temperature in C)
2018,08,10,00,00,15.80
2018,08,10,00,01,15.80
2018,08,10,00,02,15.70
2018,08,10,00,03,15.60
2018,08,10,00,04,15.60
2018,08,10,00,05,15.50
2018,08,10,00,06,15.50
2018,08,10,00,07,15.40
2018,08,10,00,08,15.40
2018,08,10,00,09,15.40
2018,08,10,00,10,15.30
2018,08,10,00,11,15.30
2018,08,10,00,12,15.30
2018,08,10,00,13,15.30
2018,08,10,00,14,15.30
2018,08,10,00,15,15.30
2018,08,10,00,16,15.20
2018,08,10,00,17,15.20
2018,08,10,00,18,15.20
2018,08,10,00,19,15.20
2018,08,10,00,20,15.20
2018,08,10,00,21,15.20
2018,08,10,00,22,15.20
2018,08,10,00,23,15.20
2018,08,10,00,24,15.20
2018,08,10,00,25,15.20
2018,08,10,00,26,15.20
2018,08,10,00,27,15.20
2018,08,10,00,28,15.20
2018,08,10,00,29,15.20
2018,08,10,00,30,15.10
2018,08,10,00,31,15.10
2018,08,10,00,32,15.10
2018,08,10,00,33,15.10
2018,08,10,00,34,15.10
2018,08,10,00,35,15.10
2018,08,10,00,36,15.10
2018,08,10,00,37,15.10
2018,08,10,00,38,15.10
2018,08,10,00,39,15.00
2018,08,10,00,40,15.00
2018,08,10,00,41,15.00
2018,08,10,00,42,14.90
2018,08,10,00,43,14.90
2018,08,10,00,44,14.90
2018,08,10,00,45,14.90
2018,08,10,00,46,14.90
2018,08,10,00,47,14.90
2018,08,10,00,48,14.90
2018,08,10,00,49,14.90
2018,08,10,00,50,14.90
2018,08,10,00,51,14.90
2018,08,10,00,52,14.90
2018,08,10,00,53,14.90
2018,08,10,00,54,14.90
2018,08,10,00,55,14.90
2018,08,10,00,56,14.80
2018,08,10,00,57,14.80
2018,08,10,00,58,14.80
2018,08,10,00,59,14.80
2018,08,10,01,00,14.80
2018,08,10,01,01,14.80
2018,08,10,01,02,14.80
2018,08,10,01,03,14.80
2018,08,10,01,04,14.80
2018,08,10,01,05,14.80
2018,08,10,01,06,14.80
2018,08,10,01,07,14.80
2018,08,10,01,08,14.70
2018,08,10,01,09,14.70
2018,08,10,01,10,14.70
2018,08,10,01,11,14.70
2018,08,10,01,12,14.70
2018,08,10,01,13,14.70
2018,08,10,01,14,14.70
2018,08,10,01,15,14.70
2018,08,10,01,16,14.70
2018,08,10,01,17,14.70
2018,08,10,01,18,14.70
2018,08,10,01,19,14.70
2018,08,10,01,20,14.70
2018,08,10,01,21,14.70
2018,08,10,01,22,14.70
2018,08,10,01,23,14.70
2018,08,10,01,24,14.70
2018,08,10,01,25,14.70
2018,08,10,01,26,14.70
2018,08,10,01,27,14.70
2018,08,10,01,28,14.70
2018,08,10,01,29,14.70
2018,08,10,01,30,14.70
2018,08,10,01,31,14.80
2018,08,10,01,32,14.80
2018,08,10,01,33,14.80
2018,08,10,01,34,14.90
2018,08,10,01,35,14.90
2018,08,10,01,36,14.90
2018,08,10,01,37,15.00
2018,08,10,01,38,15.00
2018,08,10,01,39,15.00
2018,08,10,01,40,15.00
2018,08,10,01,41,15.00
2018,08,10,01,42,15.00
2018,08,10,01,43,15.10
2018,08,10,01,44,15.10
2018,08,10,01,45,15.20
2018,08,10,01,46,15.20
2018,08,10,01,47,15.30
2018,08,10,01,48,15.30
2018,08,10,01,49,15.30
2018,08,10,01,50,15.30
2018,08,10,01,51,15.30
2018,08,10,01,52,15.30
2018,08,10,01,53,15.30
2018,08,10,01,54,15.30
2018,08,10,01,55,15.30
2018,08,10,01,56,15.30
2018,08,10,01,57,15.30
2018,08,10,01,58,15.30
2018,08,10,01,59,15.30
2018,08,10,02,00,15.30
2018,08,10,02,01,15.30
2018,08,10,02,02,15.30
2018,08,10,02,03,15.40
2018,08,10,02,04,15.40
2018,08,10,02,05,15.40
2018,08,10,02,06,15.40
2018,08,10,02,07,15.50
2018,08,10,02,08,15.50
2018,08,10,02,09,15.50
2018,08,10,02,10,15.50
2018,08,10,02,11,15.60
2018,08,10,02,12,15.60
2018,08,10,02,13,15.60
2018,08,10,02,14,15.60
2018,08,10,02,15,15.60
2018,08,10,02,16,15.60
2018,08,10,02,17,15.60
2018,08,10,02,18,15.60
2018,08,10,02,19,15.60
2018,08,10,02,20,15.60
2018,08,10,02,21,15.60
2018,08,10,02,22,15.50
2018,08,10,02,23,15.40
2018,08,10,02,24,15.30
2018,08,10,02,25,15.30
2018,08,10,02,26,15.20
2018,08,10,02,27,15.20
2018,08,10,02,28,15.10
2018,08,10,02,29,15.10
2018,08,10,02,30,15.00
2018,08,10,02,31,15.00
2018,08,10,02,32,15.00
2018,08,10,02,33,15.00
2018,08,10,02,34,14.90
2018,08,10,02,35,14.90
2018,08,10,02,36,14.90
2018,08,10,02,37,14.90
2018,08,10,02,38,14.90
2018,08,10,02,39,14.90
2018,08,10,02,40,14.90
2018,08,10,02,41,14.90
2018,08,10,02,42,14.90
2018,08,10,02,43,14.90
2018,08,10,02,44,14.90
2018,08,10,02,45,14.90
2018,08,10,02,46,15.00
2018,08,10,02,47,14.90
2018,08,10,02,48,14.90
2018,08,10,02,49,14.90
2018,08,10,02,50,14.80
2018,08,10,02,51,14.80
2018,08,10,02,52,14.80
2018,08,10,02,53,14.80
2018,08,10,02,54,14.80
2018,08,10,02,55,14.80
2018,08,10,02,56,14.80
2018,08,10,02,57,14.80
2018,08,10,02,58,14.80
2018,08,10,02,59,14.80
2018,08,10,03,00,14.80
2018,08,10,03,01,14.80
2018,08,10,03,02,14.70
2018,08,10,03,03,14.70
2018,08,10,03,04,14.70
2018,08,10,03,05,14.70
2018,08,10,03,06,14.60
2018,08,10,03,07,14.60
2018,08,10,03,08,14.60
2018,08,10,03,09,14.60
2018,08,10,03,10,14.60
2018,08,10,03,11,14.60
2018,08,10,03,12,14.60
2018,08,10,03,13,14.60
2018,08,10,03,14,14.60
2018,08,10,03,15,14.60
2018,08,10,03,16,14.50
2018,08,10,03,17,14.50
2018,08,10,03,18,14.50
2018,08,10,03,19,14.50
2018,08,10,03,20,14.50
2018,08,10,03,21,14.50
2018,08,10,03,22,14.50
2018,08,10,03,23,14.50
2018,08,10,03,24,14.50
2018,08,10,03,25,14.50
2018,08,10,03,26,14.40
2018,08,10,03,27,14.40
2018,08,10,03,28,14.40
2018,08,10,03,29,14.40
2018,08,10,03,30,14.40
2018,08,10,03,31,14.40
2018,08,10,03,32,14.50
2018,08,10,03,33,14.50
2018,08,10,03,34,14.50
2018,08,10,03,35,14.60
2018,08,10,03,36,14.60
2018,08,10,03,37,14.50
2018,08,10,03,38,14.50
2018,08,10,03,39,14.50
2018,08,10,03,40,14.40
2018,08,10,03,41,14.40
2018,08,10,03,42,14.40
2018,08,10,03,43,14.30
2018,08,10,03,44,14.30
2018,08,10,03,45,14.30
2018,08,10,03,46,14.30
2018,08,10,03,47,14.20
2018,08,10,03,48,14.20
2018,08,10,03,49,14.10
2018,08,10,03,50,14.10
2018,08,10,03,51,14.00
2018,08,10,03,52,14.00
2018,08,10,03,53,13.90
2018,08,10,03,54,13.80
2018,08,10,03,55,13.80
2018,08,10,03,56,13.70
2018,08,10,03,57,13.70
2018,08,10,03,58,13.70
2018,08,10,03,59,13.60
2018,08,10,04,00,13.60
2018,08,10,04,01,13.60
2018,08,10,04,02,13.60
2018,08,10,04,03,13.60
2018,08,10,04,04,13.60
2018,08,10,04,05,13.60
2018,08,10,04,06,13.60
2018,08,10,04,07,13.60
2018,08,10,04,08,13.60
2018,08,10,04,09,13.60
2018,08,10,04,10,13.60
2018,08,10,04,11,13.60
2018,08,10,04,12,13.70
2018,08,10,04,13,13.70
2018,08,10,04,14,13.70
2018,08,10,04,15,13.70
2018,08,10,04,16,13.70
2018,08,10,04,17,13.70
2018,08,10,04,18,13.70
2018,08,10,04,19,13.70
2018,08,10,04,20,13.80
2018,08,10,04,21,13.80
2018,08,10,04,22,13.80
2018,08,10,04,23,13.80
2018,08,10,04,24,13.90
2018,08,10,04,25,13.90
2018,08,10,04,26,13.90
2018,08,10,04,27,14.00
2018,08,10,04,28,14.10
2018,08,10,04,29,14.10
2018,08,10,04,30,14.10
2018,08,10,04,31,14.10
2018,08,10,04,32,14.10
2018,08,10,04,33,14.00
2018,08,10,04,34,14.00
2018,08,10,04,35,14.00
2018,08,10,04,36,14.00
2018,08,10,04,37,14.00
2018,08,10,04,38,14.00
2018,08,10,04,39,13.90
2018,08,10,04,40,13.90
2018,08,10,04,41,13.90
2018,08,10,04,42,13.90
2018,08,10,04,43,13.90
2018,08,10,04,44,13.90
2018,08,10,04,45,13.90
2018,08,10,04,46,14.00
2018,08,10,04,47,14.00
2018,08,10,04,48,14.10
2018,08,10,04,49,14.10
2018,08,10,04,50,14.10
2018,08,10,04,51,14.20
2018,08,10,04,52,14.20
2018,08,10,04,53,14.20
2018,08,10,04,54,14.10
2018,08,10,04,55,14.10
2018,08,10,04,56,14.00
2018,08,10,04,57,14.00
2018,08,10,04,58,14.00
2018,08,10,04,59,14.00
2018,08,10,05,00,14.00
2018,08,10,05,01,14.00
2018,08,10,05,02,14.00
2018,08,10,05,03,14.00
2018,08,10,05,04,14.00
2018,08,10,05,05,14.00
2018,08,10,05,06,13.90
2018,08,10,05,07,13.90
2018,08,10,05,08,13.90
2018,08,10,05,09,13.90
2018,08,10,05,10,13.80
2018,08,10,05,11,13.80
2018,08,10,05,12,13.80
2018,08,10,05,13,13.80
2018,08,10,05,14,13.70
2018,08,10,05,15,13.70
2018,08,10,05,16,13.70
2018,08,10,05,17,13.70
2018,08,10,05,18,13.60
2018,08,10,05,19,13.60
2018,08,10,05,20,13.60
2018,08,10,05,21,13.60
2018,08,10,05,22,13.60
2018,08,10,05,23,13.60
2018,08,10,05,24,13.50
2018,08,10,05,25,13.50
2018,08,10,05,26,13.50
2018,08,10,05,27,13.50
2018,08,10,05,28,13.50
2018,08,10,05,29,13.50
2018,08,10,05,30,13.40
2018,08,10,05,31,13.40
2018,08,10,05,32,13.40
2018,08,10,05,33,13.40
2018,08,10,05,34,13.40
2018,08,10,05,35,13.40
2018,08,10,05,36,13.40
2018,08,10,05,37,13.40
2018,08,10,05,38,13.50
2018,08,10,05,39,13.50
2018,08,10,05,40,13.50
2018,08,10,05,41,13.50
2018,08,10,05,42,13.50
2018,08,10,05,43,13.60
2018,08,10,05,44,13.60
2018,08,10,05,45,13.60
2018,08,10,05,46,13.60
2018,08,10,05,47,13.60
2018,08,10,05,48,13.60
2018,08,10,05,49,13.70
2018,08,10,05,50,13.70
2018,08,10,05,51,13.70
2018,08,10,05,52,13.70
2018,08,10,05,53,13.70
2018,08,10,05,54,13.70
2018,08,10,05,55,13.70
2018,08,10,05,56,13.70
2018,08,10,05,57,13.70
2018,08,10,05,58,13.70
2018,08,10,05,59,13.70
2018,08,10,06,00,13.70
2018,08,10,06,01,13.70
2018,08,10,06,02,13.70
2018,08,10,06,03,13.80
2018,08,10,06,04,13.80
2018,08,10,06,05,13.90
2018,08,10,06,06,13.90
2018,08,10,06,07,13.90
2018,08,10,06,08,14.00
2018,08,10,06,09,14.00
2018,08,10,06,10,14.10
2018,08,10,06,11,14.10
2018,08,10,06,12,14.10
2018,08,10,06,13,14.10
2018,08,10,06,14,14.10
2018,08,10,06,15,14.10
2018,08,10,06,16,14.00
2018,08,10,06,17,14.00
2018,08,10,06,18,14.00
2018,08,10,06,19,14.00
2018,08,10,06,20,14.00
2018,08,10,06,21,14.00
2018,08,10,06,22,14.00
2018,08,10,06,23,14.00
2018,08,10,06,24,14.00
2018,08,10,06,25,14.00
2018,08,10,06,26,13.90
2018,08,10,06,27,13.90
2018,08,10,06,28,13.90
2018,08,10,06,29,13.90
2018,08,10,06,30,13.80
2018,08,10,06,31,13.80
2018,08,10,06,32,13.70
2018,08,10,06,33,13.70
2018,08,10,06,34,13.70
2018,08,10,06,35,13.60
2018,08,10,06,36,13.60
2018,08,10,06,37,13.60
2018,08,10,06,38,13.60
2018,08,10,06,39,13.60
2018,08,10,06,40,13.60
2018,08,10,06,41,13.60
2018,08,10,06,42,13.60
2018,08,10,06,43,13.60
2018,08,10,06,44,13.50
2018,08,10,06,45,13.60
2018,08,10,06,46,13.60
2018,08,10,06,47,13.60
2018,08,10,06,48,13.60
2018,08,10,06,49,13.60
2018,08,10,06,50,13.70
2018,08,10,06,51,13.70
2018,08,10,06,52,13.70
2018,08,10,06,53,13.70
2018,08,10,06,54,13.80
2018,08,10,06,55,13.80
2018,08,10,06,56,13.80
2018,08,10,06,57,13.90
2018,08,10,06,58,13.90
2018,08,10,06,59,13.90
2018,08,10,07,00,14.00
2018,08,10,07,01,14.00
2018,08,10,07,02,14.10
2018,08,10,07,03,14.10
2018,08,10,07,04,14.10
2018,08,10,07,05,14.20
2018,08,10,07,06,14.20
2018,08,10,07,07,14.30
2018,08,10,07,08,14.30
2018,08,10,07,09,14.40
2018,08,10,07,10,14.40
2018,08,10,07,11,14.50
2018,08,10,07,12,14.50
2018,08,10,07,13,14.60
2018,08,10,07,14,14.60
2018,08,10,07,15,14.70
2018,08,10,07,16,14.70
2018,08,10,07,17,14.70
2018,08,10,07,18,14.80
2018,08,10,07,19,14.80
2018,08,10,07,20,14.90
2018,08,10,07,21,14.90
2018,08,10,07,22,15.00
2018,08,10,07,23,15.00
2018,08,10,07,24,15.10
2018,08,10,07,25,15.20
2018,08,10,07,26,15.30
2018,08,10,07,27,15.30
2018,08,10,07,28,15.40
2018,08,10,07,29,15.50
2018,08,10,07,30,15.60
2018,08,10,07,31,15.70
2018,08,10,07,32,15.70
2018,08,10,07,33,15.80
2018,08,10,07,34,15.80
2018,08,10,07,35,15.80
2018,08,10,07,36,15.80
2018,08,10,07,37,15.90
2018,08,10,07,38,15.90
2018,08,10,07,39,15.90
2018,08,10,07,40,15.90
2018,08,10,07,41,15.90
2018,08,10,07,42,15.90
2018,08,10,07,43,16.00
2018,08,10,07,44,16.00
2018,08,10,07,45,16.10
2018,08,10,07,46,16.10
2018,08,10,07,47,16.20
2018,08,10,07,48,16.20
2018,08,10,07,49,16.30
2018,08,10,07,50,16.30
2018,08,10,07,51,16.30
2018,08,10,07,52,16.40
2018,08,10,07,53,16.40
2018,08,10,07,54,16.50
2018,08,10,07,55,16.50
2018,08,10,07,56,16.50
2018,08,10,07,57,16.50
2018,08,10,07,58,16.50
2018,08,10,07,59,16.40
2018,08,10,08,00,16.40
2018,08,10,08,01,16.40
2018,08,10,08,02,16.40
2018,08,10,08,03,16.40
2018,08,10,08,04,16.50
2018,08,10,08,05,16.50
2018,08,10,08,06,16.50
2018,08,10,08,07,16.50
2018,08,10,08,08,16.50
2018,08,10,08,09,16.50
2018,08,10,08,10,16.50
2018,08,10,08,11,16.40
2018,08,10,08,12,16.40
2018,08,10,08,13,16.40
2018,08,10,08,14,16.40
2018,08,10,08,15,16.30
2018,08,10,08,16,16.30
2018,08,10,08,17,16.30
2018,08,10,08,18,16.20
2018,08,10,08,19,16.20
2018,08,10,08,20,16.20
2018,08,10,08,21,16.20
2018,08,10,08,22,16.30
2018,08,10,08,23,16.40
2018,08,10,08,24,16.60
2018,08,10,08,25,16.70
2018,08,10,08,26,16.70
2018,08,10,08,27,16.80
2018,08,10,08,28,16.80
2018,08,10,08,29,16.80
2018,08,10,08,30,16.90
2018,08,10,08,31,16.90
2018,08,10,08,32,16.90
2018,08,10,08,33,17.00
2018,08,10,08,34,17.00
2018,08,10,08,35,17.10
2018,08,10,08,36,17.10
2018,08,10,08,37,17.20
2018,08,10,08,38,17.20
2018,08,10,08,39,17.30
2018,08,10,08,40,17.30
2018,08,10,08,41,17.40
2018,08,10,08,42,17.50
2018,08,10,08,43,17.60
2018,08,10,08,44,17.70
2018,08,10,08,45,17.80
2018,08,10,08,46,17.90
2018,08,10,08,47,18.00
2018,08,10,08,48,18.10
2018,08,10,08,49,18.10
2018,08,10,08,50,18.20
2018,08,10,08,51,18.20
2018,08,10,08,52,18.20
2018,08,10,08,53,18.30
2018,08,10,08,54,18.30
2018,08,10,08,55,18.30
2018,08,10,08,56,18.30
2018,08,10,08,57,18.30
2018,08,10,08,58,18.40
2018,08,10,08,59,18.40
2018,08,10,09,00,18.40
2018,08,10,09,01,18.50
2018,08,10,09,02,18.50
2018,08,10,09,03,18.60
2018,08,10,09,04,18.60
2018,08,10,09,05,18.60
2018,08,10,09,06,18.60
2018,08,10,09,07,18.60
2018,08,10,09,08,18.60
2018,08,10,09,09,18.60
2018,08,10,09,10,18.70
2018,08,10,09,11,18.70
2018,08,10,09,12,18.60
2018,08,10,09,13,18.60
2018,08,10,09,14,18.60
2018,08,10,09,15,18.70
2018,08,10,09,16,18.70
2018,08,10,09,17,18.70
2018,08,10,09,18,18.70
2018,08,10,09,19,18.70
2018,08,10,09,20,18.70
2018,08,10,09,21,18.70
2018,08,10,09,22,18.80
2018,08,10,09,23,18.80
2018,08,10,09,24,18.70
2018,08,10,09,25,18.70
2018,08,10,09,26,18.70
2018,08,10,09,27,18.70
2018,08,10,09,28,18.70
2018,08,10,09,29,18.70
2018,08,10,09,30,18.70
2018,08,10,09,31,18.70
2018,08,10,09,32,18.70
2018,08,10,09,33,18.70
2018,08,10,09,34,18.80
2018,08,10,09,35,18.80
2018,08,10,09,36,18.70
2018,08,10,09,37,18.70
2018,08,10,09,38,18.70
2018,08,10,09,39,18.70
2018,08,10,09,40,18.80
2018,08,10,09,41,18.80
2018,08,10,09,42,18.90
2018,08,10,09,43,18.90
2018,08,10,09,44,19.00
2018,08,10,09,45,19.00
2018,08,10,09,46,19.00
2018,08,10,09,47,19.10
2018,08,10,09,48,19.10
2018,08,10,09,49,19.10
2018,08,10,09,50,19.20
2018,08,10,09,51,19.20
2018,08,10,09,52,19.30
2018,08,10,09,53,19.30
2018,08,10,09,54,19.30
2018,08,10,09,55,19.30
2018,08,10,09,56,19.20
2018,08,10,09,57,19.10
2018,08,10,09,58,19.10
2018,08,10,09,59,19.10
2018,08,10,10,00,19.10
2018,08,10,10,01,19.00
2018,08,10,10,02,19.00
2018,08,10,10,03,18.90
2018,08,10,10,04,18.90
2018,08,10,10,05,18.90
2018,08,10,10,06,18.80
2018,08,10,10,07,18.80
2018,08,10,10,08,18.80
2018,08,10,10,09,18.90
2018,08,10,10,10,18.90
2018,08,10,10,11,19.10
2018,08,10,10,12,19.20
2018,08,10,10,13,19.20
2018,08,10,10,14,19.30
2018,08,10,10,15,19.20
2018,08,10,10,16,19.20
2018,08,10,10,17,19.10
2018,08,10,10,18,19.00
2018,08,10,10,19,18.90
2018,08,10,10,20,18.90
2018,08,10,10,21,18.90
2018,08,10,10,22,19.00
2018,08,10,10,23,19.00
2018,08,10,10,24,19.10
2018,08,10,10,25,19.10
2018,08,10,10,26,19.10
2018,08,10,10,27,19.20
2018,08,10,10,28,19.20
2018,08,10,10,29,19.20
2018,08,10,10,30,19.20
2018,08,10,10,31,19.20
2018,08,10,10,32,19.20
2018,08,10,10,33,19.10
2018,08,10,10,34,19.10
2018,08,10,10,35,19.00
2018,08,10,10,36,19.00
2018,08,10,10,37,19.00
2018,08,10,10,38,19.10
2018,08,10,10,39,19.10
2018,08,10,10,40,19.20
2018,08,10,10,41,19.20
2018,08,10,10,42,19.10
2018,08,10,10,43,19.10
2018,08,10,10,44,19.10
2018,08,10,10,45,19.10
2018,08,10,10,46,19.20
2018,08,10,10,47,19.20
2018,08,10,10,48,19.30
2018,08,10,10,49,19.30
2018,08,10,10,50,19.30
2018,08,10,10,51,19.30
2018,08,10,10,52,19.40
2018,08,10,10,53,19.50
2018,08,10,10,54,19.60
2018,08,10,10,55,19.60
2018,08,10,10,56,19.60
2018,08,10,10,57,19.60
2018,08,10,10,58,19.60
2018,08,10,10,59,19.70
2018,08,10,11,00,19.70
2018,08,10,11,01,19.70
2018,08,10,11,02,19.70
2018,08,10,11,03,19.80
2018,08,10,11,04,19.80
2018,08,10,11,05,19.80
2018,08,10,11,06,19.90
2018,08,10,11,07,19.90
2018,08,10,11,08,19.80
2018,08,10,11,09,19.80
2018,08,10,11,10,19.70
2018,08,10,11,11,19.60
2018,08,10,11,12,19.60
2018,08,10,11,13,19.60
2018,08,10,11,14,19.60
2018,08,10,11,15,19.70
2018,08,10,11,16,19.80
2018,08,10,11,17,19.80
2018,08,10,11,18,19.70
2018,08,10,11,19,19.70
2018,08,10,11,20,19.60
2018,08,10,11,21,19.60
2018,08,10,11,22,19.60
2018,08,10,11,23,19.70
2018,08,10,11,24,19.80
2018,08,10,11,25,19.90
2018,08,10,11,26,19.90
2018,08,10,11,27,19.90
2018,08,10,11,28,19.90
2018,08,10,11,29,20.00
2018,08,10,11,30,20.00
2018,08,10,11,31,20.10
2018,08,10,11,32,20.20
2018,08,10,11,33,20.20
2018,08,10,11,34,20.10
2018,08,10,11,35,20.10
2018,08,10,11,36,20.10
2018,08,10,11,37,20.00
2018,08,10,11,38,19.80
2018,08,10,11,39,19.70
2018,08,10,11,40,19.50
2018,08,10,11,41,19.30
2018,08,10,11,42,19.20
2018,08,10,11,43,19.10
2018,08,10,11,44,19.00
2018,08,10,11,45,18.90
2018,08,10,11,46,18.80
2018,08,10,11,47,18.70
2018,08,10,11,48,18.60
2018,08,10,11,49,18.60
2018,08,10,11,50,18.60
2018,08,10,11,51,18.60
2018,08,10,11,52,18.70
2018,08,10,11,53,18.80
2018,08,10,11,54,18.90
2018,08,10,11,55,19.00
2018,08,10,11,56,19.10
2018,08,10,11,57,19.20
2018,08,10,11,58,19.20
2018,08,10,11,59,19.30
2018,08,10,12,00,19.30
2018,08,10,12,01,19.30
2018,08,10,12,02,19.40
2018,08,10,12,03,19.50
2018,08,10,12,04,19.60
2018,08,10,12,05,19.60
2018,08,10,12,06,19.60
2018,08,10,12,07,19.60
2018,08,10,12,08,19.60
2018,08,10,12,09,19.80
2018,08,10,12,10,20.20
2018,08,10,12,11,20.30
2018,08,10,12,12,20.40
2018,08,10,12,13,20.50
2018,08,10,12,14,20.60
2018,08,10,12,15,20.70
2018,08,10,12,16,20.60
2018,08,10,12,17,20.50
2018,08,10,12,18,20.40
2018,08,10,12,19,20.30
2018,08,10,12,20,20.20
2018,08,10,12,21,20.20
2018,08,10,12,22,20.10
2018,08,10,12,23,20.00
2018,08,10,12,24,19.90
2018,08,10,12,25,19.80
2018,08,10,12,26,19.80
2018,08,10,12,27,19.80
2018,08,10,12,28,19.80
2018,08,10,12,29,19.90
2018,08,10,12,30,19.90
2018,08,10,12,31,20.00
2018,08,10,12,32,20.10
2018,08,10,12,33,20.10
2018,08,10,12,34,20.10
2018,08,10,12,35,20.20
2018,08,10,12,36,20.20
2018,08,10,12,37,20.30
2018,08,10,12,38,20.30
2018,08,10,12,39,20.30
2018,08,10,12,40,20.30
2018,08,10,12,41,20.20
2018,08,10,12,42,19.90
2018,08,10,12,43,19.70
2018,08,10,12,44,19.50
2018,08,10,12,45,19.40
2018,08,10,12,46,19.30
2018,08,10,12,47,19.20
2018,08,10,12,48,19.20
2018,08,10,12,49,19.20
2018,08,10,12,50,19.20
2018,08,10,12,51,19.20
2018,08,10,12,52,19.30
2018,08,10,12,53,19.30
2018,08,10,12,54,19.40
2018,08,10,12,55,19.50
2018,08,10,12,56,19.60
2018,08,10,12,57,19.70
2018,08,10,12,58,19.80
2018,08,10,12,59,19.80
2018,08,10,13,00,19.80
2018,08,10,13,01,19.80
2018,08,10,13,02,19.80
2018,08,10,13,03,19.80
2018,08,10,13,04,19.80
2018,08,10,13,05,19.80
2018,08,10,13,06,19.70
2018,08,10,13,07,19.80
2018,08,10,13,08,19.80
2018,08,10,13,09,19.90
2018,08,10,13,10,19.90
2018,08,10,13,11,19.80
2018,08,10,13,12,19.70
2018,08,10,13,13,19.60
2018,08,10,13,14,19.60
2018,08,10,13,15,19.60
2018,08,10,13,16,19.70
2018,08,10,13,17,19.70
2018,08,10,13,18,19.60
2018,08,10,13,19,19.50
2018,08,10,13,20,19.40
2018,08,10,13,21,19.30
2018,08,10,13,22,19.30
2018,08,10,13,23,19.30
2018,08,10,13,24,19.10
2018,08,10,13,25,19.00
2018,08,10,13,26,18.80
2018,08,10,13,27,18.70
2018,08,10,13,28,18.70
2018,08,10,13,29,18.70
2018,08,10,13,30,18.80
2018,08,10,13,31,18.90
2018,08,10,13,32,18.90
2018,08,10,13,33,18.90
2018,08,10,13,34,18.80
2018,08,10,13,35,18.70
2018,08,10,13,36,18.60
2018,08,10,13,37,18.50
2018,08,10,13,38,18.50
2018,08,10,13,39,18.50
2018,08,10,13,40,18.40
2018,08,10,13,41,18.40
2018,08,10,13,42,18.30
2018,08,10,13,43,18.20
2018,08,10,13,44,18.10
2018,08,10,13,45,18.00
2018,08,10,13,46,17.90
2018,08,10,13,47,17.90
2018,08,10,13,48,17.80
2018,08,10,13,49,17.90
2018,08,10,13,50,18.00
2018,08,10,13,51,18.00
2018,08,10,13,52,18.10
2018,08,10,13,53,18.20
2018,08,10,13,54,18.20
2018,08,10,13,55,18.20
2018,08,10,13,56,18.00
2018,08,10,13,57,17.90
2018,08,10,13,58,17.80
2018,08,10,13,59,17.70
2018,08,10,14,00,17.60
2018,08,10,14,01,17.50
2018,08,10,14,02,17.40
2018,08,10,14,03,17.40
2018,08,10,14,04,17.40
2018,08,10,14,05,17.40
2018,08,10,14,06,17.50
2018,08,10,14,07,17.60
2018,08,10,14,08,17.70
2018,08,10,14,09,17.80
2018,08,10,14,10,17.90
2018,08,10,14,11,18.00
2018,08,10,14,12,18.20
2018,08,10,14,13,18.40
2018,08,10,14,14,18.50
2018,08,10,14,15,18.60
2018,08,10,14,16,18.70
2018,08,10,14,17,18.70
2018,08,10,14,18,18.80
2018,08,10,14,19,18.90
2018,08,10,14,20,19.00
2018,08,10,14,21,19.10
2018,08,10,14,22,19.20
2018,08,10,14,23,19.10
2018,08,10,14,24,19.10
2018,08,10,14,25,19.10
2018,08,10,14,26,19.10
2018,08,10,14,27,19.10
2018,08,10,14,28,19.10
2018,08,10,14,29,19.10
2018,08,10,14,30,19.10
2018,08,10,14,31,19.10
2018,08,10,14,32,19.10
2018,08,10,14,33,19.00
2018,08,10,14,34,18.90
2018,08,10,14,35,18.80
2018,08,10,14,36,18.80
2018,08,10,14,37,18.70
2018,08,10,14,38,18.70
2018,08,10,14,39,18.70
2018,08,10,14,40,18.70
2018,08,10,14,41,18.70
2018,08,10,14,42,18.60
2018,08,10,14,43,18.60
2018,08,10,14,44,18.60
2018,08,10,14,45,18.60
2018,08,10,14,46,18.60
2018,08,10,14,47,18.50
2018,08,10,14,48,18.50
2018,08,10,14,49,18.60
2018,08,10,14,50,18.70
2018,08,10,14,51,18.80
2018,08,10,14,52,18.80
2018,08,10,14,53,18.90
2018,08,10,14,54,19.00
2018,08,10,14,55,19.10
2018,08,10,14,56,19.20
2018,08,10,14,57,19.30
2018,08,10,14,58,19.40
2018,08,10,14,59,19.30
2018,08,10,15,00,19.20
2018,08,10,15,01,19.00
2018,08,10,15,02,18.90
2018,08,10,15,03,18.80
2018,08,10,15,04,18.80
2018,08,10,15,05,18.70
2018,08,10,15,06,18.50
2018,08,10,15,07,18.40
2018,08,10,15,08,18.30
2018,08,10,15,09,18.20
2018,08,10,15,10,18.00
2018,08,10,15,11,17.80
2018,08,10,15,12,17.70
2018,08,10,15,13,17.70
2018,08,10,15,14,17.70
2018,08,10,15,15,17.70
2018,08,10,15,16,17.70
2018,08,10,15,17,17.60
2018,08,10,15,18,17.60
2018,08,10,15,19,17.60
2018,08,10,15,20,17.60
2018,08,10,15,21,17.60
2018,08,10,15,22,17.60
2018,08,10,15,23,17.70
2018,08,10,15,24,17.70
2018,08,10,15,25,17.50
2018,08,10,15,26,17.40
2018,08,10,15,27,17.20
2018,08,10,15,28,17.20
2018,08,10,15,29,17.20
2018,08,10,15,30,17.20
2018,08,10,15,31,17.20
2018,08,10,15,32,17.20
2018,08,10,15,33,17.30
2018,08,10,15,34,17.30
2018,08,10,15,35,17.30
2018,08,10,15,36,17.40
2018,08,10,15,37,17.60
2018,08,10,15,38,17.80
2018,08,10,15,39,17.90
2018,08,10,15,40,18.10
2018,08,10,15,41,18.30
2018,08,10,15,42,18.50
2018,08,10,15,43,18.70
2018,08,10,15,44,18.90
2018,08,10,15,45,19.10
2018,08,10,15,46,19.30
2018,08,10,15,47,19.50
2018,08,10,15,48,19.70
2018,08,10,15,49,19.90
2018,08,10,15,50,20.00
2018,08,10,15,51,20.20
2018,08,10,15,52,20.50
2018,08,10,15,53,20.80
2018,08,10,15,54,21.00
2018,08,10,15,55,21.30
2018,08,10,15,56,21.50
2018,08,10,15,57,21.70
2018,08,10,15,58,21.80
2018,08,10,15,59,21.80
2018,08,10,16,00,21.90
2018,08,10,16,01,22.10
2018,08,10,16,02,22.30
2018,08,10,16,03,22.60
2018,08,10,16,04,22.80
2018,08,10,16,05,23.00
2018,08,10,16,06,23.20
2018,08,10,16,07,23.40
2018,08,10,16,08,23.70
2018,08,10,16,09,23.90
2018,08,10,16,10,24.00
2018,08,10,16,11,24.10
2018,08,10,16,12,24.10
2018,08,10,16,13,24.00
2018,08,10,16,14,24.00
2018,08,10,16,15,24.00
2018,08,10,16,16,24.00
2018,08,10,16,17,24.00
2018,08,10,16,18,24.00
2018,08,10,16,19,23.90
2018,08,10,16,20,23.90
2018,08,10,16,21,23.90
2018,08,10,16,22,23.90
2018,08,10,16,23,23.90
2018,08,10,16,24,23.80
2018,08,10,16,25,23.80
2018,08,10,16,26,23.70
2018,08,10,16,27,23.70
2018,08,10,16,28,23.60
2018,08,10,16,29,23.60
2018,08,10,16,30,23.60
2018,08,10,16,31,23.60
2018,08,10,16,32,23.50
2018,08,10,16,33,23.50
2018,08,10,16,34,23.50
2018,08,10,16,35,23.50
2018,08,10,16,36,23.50
2018,08,10,16,37,23.50
2018,08,10,16,38,23.50
2018,08,10,16,39,23.50
2018,08,10,16,40,23.50
2018,08,10,16,41,23.40
2018,08,10,16,42,23.40
2018,08,10,16,43,23.40
2018,08,10,16,44,23.40
2018,08,10,16,45,23.40
2018,08,10,16,46,23.30
2018,08,10,16,47,23.30
2018,08,10,16,48,23.30
2018,08,10,16,49,23.30
2018,08,10,16,50,23.30
2018,08,10,16,51,23.30
2018,08,10,16,52,23.40
2018,08,10,16,53,23.40
2018,08,10,16,54,23.40
2018,08,10,16,55,23.40
2018,08,10,16,56,23.40
2018,08,10,16,57,23.40
2018,08,10,16,58,23.30
2018,08,10,16,59,23.30
2018,08,10,17,00,23.20
2018,08,10,17,01,23.20
2018,08,10,17,02,23.10
2018,08,10,17,03,23.10
2018,08,10,17,04,23.00
2018,08,10,17,05,22.90
2018,08,10,17,06,22.90
2018,08,10,17,07,22.90
2018,08,10,17,08,22.90
2018,08,10,17,09,22.80
2018,08,10,17,10,22.70
2018,08,10,17,11,22.70
2018,08,10,17,12,22.60
2018,08,10,17,13,22.60
2018,08,10,17,14,22.50
2018,08,10,17,15,22.50
2018,08,10,17,16,22.50
2018,08,10,17,17,22.50
2018,08,10,17,18,22.60
2018,08,10,17,19,22.60